Regional Weather Roundup
Issued by NWS

Home | Current Version | Previous Version | Text Only | Print | Product List | Glossary Off
Versions: 1 2 3 4 5 6 7 8 9 10 11 12 13 14 15 16 17 18 19 20 21 22 23 24 25 26 27 28 29 30 31 32 33 34 35 36 37 38 39 40 41 42 43 44 45 46 47 48 49 50

000
ASUS44 KOUN 020210
RWROK

WEATHER ROUNDUP FOR OKLAHOMA
NATIONAL WEATHER SERVICE NORMAN OK
900 PM CDT FRI AUG 01 2014

NOTE: "FAIR" INDICATES FEW OR NO CLOUDS BELOW 12,000 FEET WITH NO
      SIGNIFICANT WEATHER AND/OR OBSTRUCTIONS TO VISIBILITY.

OKZ001>007-009>012-014-015-017-020300-
NORTHWEST OKLAHOMA AND THE PANHANDLE

CITY           SKY/WX    TMP DP  RH WIND       PRES   REMARKS
GAGE           CLEAR     77  60  55 E5        30.08R
ENID/WOODRING  PTCLDY    77  68  73 SE12      30.03R
$$

OKZ016-021>023-033>039-044-045-020300-
SOUTHWEST OKLAHOMA

CITY           SKY/WX    TMP DP  RH WIND       PRES   REMARKS
LAWTON/REGL    PTCLDY    78  63  59 SE7       30.04R
LAWTON/FT SILL PTCLDY    77  64  65 E7        30.04R
FREDERICK      PTCLDY    79  65  62 E5        30.01S
CLINTON        CLEAR     77  64  64 S6        30.08R
HOBART         CLEAR     76  64  66 SE5       30.06R
ALTUS AFB      CLEAR     76  68  78 S6        30.03F
$$

OKZ018>020-024>031-020300-
CENTRAL OKLAHOMA

CITY           SKY/WX    TMP DP  RH WIND       PRES   REMARKS
OKLAHOMA CITY  MOCLDY    74  64  71 SE6       30.06R
OKC/WILEY POST CLEAR     78  64  61 SE6       30.05S
OKC/TINKER AFB CLEAR     73  67  80 S6        30.06S
STILLWATER     CLEAR     75  65  70 S6        30.04R
GUTHRIE        CLEAR     75  66  73 SE5       30.05R
$$

OKZ008-013-054>072-020300-
NORTHEAST OKLAHOMA

CITY           SKY/WX    TMP DP  RH WIND       PRES   REMARKS
TULSA          PTCLDY    77  64  64 SE5       30.02S
TULSA/JONES    CLEAR     79  66  64 CALM      30.03S
PONCA CITY     PTCLDY    77  66  68 SE9       30.03R
BARTLESVILLE   CLEAR     70  67  90 CALM      30.05R
MUSKOGEE       CLEAR     73  67  81 CALM      30.04S
$$

OKZ032-040>043-046>053-073>077-020300-
SOUTH CENTRAL/SOUTHEAST OKLAHOMA

CITY           SKY/WX    TMP DP  RH WIND       PRES   REMARKS
ARDMORE/DWNTWN PTCLDY    70  66  88 CALM      30.05R
MCALESTER      CLEAR     72  68  87 SE3       30.05R
$$




USA.gov is the U.S. government's official web portal to all federal, state and local government web resources and services.